📊 Raw Sensor Data

Showing records 50001 to 50025 of 85,128 total

ID Distance (ft) Battery V Battery A Int Temp (°F) Int Humid (%) Ext Temp (°F) Solar V RSSI SNR Time Stamp
35140 -- 4.04 0 54 36 56 5.10 -79 9 03/16/2025 10:01 AM
35139 -- 4.04 0 52 36 55 5.10 -80 8 03/16/2025 09:46 AM
35138 -- 4.04 0 51 36 53 5.10 -79 8 03/16/2025 09:30 AM
35137 -- 4.04 0 49 36 52 5.10 -80 9 03/16/2025 09:15 AM
35136 15.2 4.05 0 47 36 51 5.10 -80 7 03/16/2025 09:00 AM
35135 15.1 4.05 0 45 36 50 5.00 -80 7 03/16/2025 08:45 AM
35134 15.1 4.05 0 43 37 48 5.10 -79 8 03/16/2025 08:30 AM
35133 15.1 4.05 0 41 37 45 5.10 -81 7 03/16/2025 08:15 AM
35132 15.1 4.07 0 39 38 43 4.50 -85 8 03/16/2025 08:00 AM
35131 15.1 4.05 15 37 39 39 4.50 -81 8 03/16/2025 07:45 AM
35130 15.1 3.99 0 36 39 38 4.50 -82 8 03/16/2025 07:30 AM
35129 15.1 3.96 -10 35 39 37 4.10 -83 7 03/16/2025 07:15 AM
35128 15.1 3.98 -5 36 39 37 0.60 -82 8 03/16/2025 07:00 AM
35127 15.1 4.03 -5 36 40 37 0.10 -82 8 03/16/2025 06:45 AM
35126 15.1 3.98 -5 36 39 38 0.00 -82 8 03/16/2025 06:30 AM
35125 15.1 3.98 -5 36 39 38 0.00 -83 8 03/16/2025 06:15 AM
35124 15.1 3.98 -5 37 39 38 0.10 -82 8 03/16/2025 06:00 AM
35123 15.1 3.98 -5 37 39 38 0.10 -81 8 03/16/2025 05:45 AM
35122 15.1 3.98 -5 37 40 39 0.00 -83 8 03/16/2025 05:30 AM
35121 15.0 3.98 -5 37 40 40 0.00 -83 8 03/16/2025 05:15 AM
35120 15.0 3.98 -5 37 39 39 0.10 -82 8 03/16/2025 05:00 AM
35119 15.0 3.99 -5 37 40 38 0.00 -81 9 03/16/2025 04:45 AM
35118 15.0 4.04 -5 37 40 38 0.00 -80 8 03/16/2025 04:30 AM
35117 15.0 3.99 -5 38 41 39 0.00 -79 8 03/16/2025 04:15 AM
35116 15.1 3.99 -5 38 41 40 0.10 -80 8 03/16/2025 04:00 AM